Weather History for Oakland, MD

Change the Weather History Date:

Saturday, August 2, 2014

  Actual Average (KMGW) Record (KMGW)
Temperature  
Mean Temperature 64 °F 73 °F  
Max Temperature 73 °F 83 °F 97 °F (1975)
Min Temperature 55 °F 63 °F 52 °F (1976)
Degree Days  
Heating Degree Days 1 0  
Month to date heating degree days 0  
Since 1 June heating degree days 34  
Since 1 July heating degree days 3  
Cooling Degree Days 0 8  
Month to date cooling degree days 16  
Year to date cooling degree days 500  
Since 1 June cooling degree days 433  
Growing Degree Days 14 (Base 50)    
Moisture  
Dew Point 59 °F    
Average Humidity 78    
Maximum Humidity 100    
Minimum Humidity 50    
Precipitation  
Precipitation 0.00 in 0.12 in 1.09 in (2008)
Month to date precipitation 0.25  
Year to date precipitation 26.17  
Sea Level Pressure  
Sea Level Pressure 30.18 in    
Wind  
Wind Speed 8 mph (SE)    
Max Wind Speed 16 mph    
Max Gust Speed 20 mph    
Visibility 9 miles    
Events      
T = Trace of Precipitation, MM = Missing Value Source: NWS Daily Summary

Daily Weather History Graph

Daily Weather History Graph

Search for Another Location

Airport:

Trip Planner

Search our weather history database for the weather conditions in past years. The results will help you decide how hot, cold, wet, or windy it might be!

Date:

Astronomy

Aug. 02, 2014 Rise Set
Actual Time 6:17 AM EDT 8:29 PM EDT
Civil Twilight 5:47 AM EDT 8:58 PM EDT
Nautical Twilight 5:10 AM EDT 9:35 PM EDT
Astronomical Twilight 4:30 AM EDT 10:15 PM EDT
Moon 12:36 PM EDT (8/2) 11:48 PM EDT (8/2)
Length of Visible Light 15h 11m
Length of Day
14h 11m
Waxing Crescent, 36% of the Moon is Illuminated
Aug 2
Waxing Crescent
Aug 3
First Quarter
Aug 10
Full
Aug 17
Last Quarter
Aug 25
New

Hourly Weather History & Observations

Time (EDT) Temp. Dew Point Humidity Pressure Visibility Wind Dir Wind Speed Gust Speed Precip Events Conditions
12:20 AM 59.0 °F 59.0 °F 100% 30.22 in 10.0 mi SSE 8.1 mph - N/A   Overcast
12:40 AM 59.0 °F 59.0 °F 100% 30.22 in 10.0 mi SSE 8.1 mph - N/A   Overcast
1:00 AM 59.0 °F 59.0 °F 100% 30.22 in 10.0 mi SSE 8.1 mph - N/A   Overcast
2:00 AM 59.0 °F 59.0 °F 100% 30.20 in 10.0 mi SSE 9.2 mph - N/A   Mostly Cloudy
2:20 AM 59.0 °F 59.0 °F 100% 30.20 in 10.0 mi SSE 9.2 mph - N/A   Scattered Clouds
2:40 AM 57.2 °F 57.2 °F 100% 30.20 in 10.0 mi SE 8.1 mph - N/A   Scattered Clouds
3:00 AM 57.2 °F 57.2 °F 100% 30.19 in 10.0 mi SE 9.2 mph - N/A   Mostly Cloudy
3:20 AM 57.2 °F 57.2 °F 100% 30.19 in 10.0 mi SE 9.2 mph - N/A   Scattered Clouds
3:40 AM 55.4 °F - N/A% 30.19 in 10.0 mi SE 5.8 mph - N/A   Clear
4:00 AM 55.4 °F - N/A% 30.18 in 10.0 mi SE 9.2 mph - N/A   Clear
4:20 AM 55.4 °F - N/A% 30.18 in 10.0 mi SE 9.2 mph - N/A   Clear
5:00 AM 55.4 °F - N/A% 30.18 in 4.0 mi SE 6.9 mph - N/A   Haze
5:20 AM 55.4 °F - N/A% 30.19 in 2.5 mi SE 6.9 mph - N/A   Clear
5:40 AM 55.4 °F - N/A% 30.19 in 3.0 mi SE 9.2 mph - N/A   Clear
6:20 AM 55.4 °F - N/A% 30.20 in 1.2 mi SE 9.2 mph - N/A   Mist
6:40 AM 55.4 °F - N/A% 30.20 in 2.5 mi SE 9.2 mph - N/A   Mostly Cloudy
7:20 AM 57.2 °F - N/A% 30.21 in 1.5 mi SE 6.9 mph - N/A   Overcast
7:40 AM 57.2 °F - N/A% 30.22 in 1.8 mi SE 6.9 mph - N/A   Overcast
8:00 AM 55.4 °F - N/A% 30.22 in 1.2 mi SE 8.1 mph - N/A   Overcast
8:20 AM 57.2 °F - N/A% 30.22 in 2.0 mi SE 6.9 mph - N/A   Overcast
8:40 AM 59.0 °F - N/A% 30.21 in 4.0 mi SE 4.6 mph - N/A   Haze
9:00 AM 60.8 °F - N/A% 30.22 in 7.0 mi SSE 8.1 mph - N/A   Clear
9:20 AM 62.6 °F 62.6 °F 100% 30.20 in 10.0 mi SE 8.1 mph - N/A   Clear
10:00 AM 66.2 °F 59.0 °F 78% 30.22 in 10.0 mi SE 8.1 mph - N/A   Clear
10:20 AM 68.0 °F 60.8 °F 78% 30.21 in 10.0 mi SE 6.9 mph - N/A   Clear
10:40 AM 68.0 °F 59.0 °F 73% 30.21 in 10.0 mi SE 10.4 mph 16.1 mph N/A   Clear
11:00 AM 68.0 °F 59.0 °F 73% 30.21 in 10.0 mi SE 6.9 mph - N/A   Clear
11:20 AM 68.0 °F 59.0 °F 73% 30.21 in 10.0 mi ESE 9.2 mph 16.1 mph N/A   Clear
12:00 PM 69.8 °F 59.0 °F 68% 30.22 in 10.0 mi SE 8.1 mph - N/A   Scattered Clouds
12:20 PM 71.6 °F 59.0 °F 64% 30.21 in 10.0 mi South 4.6 mph - N/A   Clear
12:40 PM 69.8 °F 59.0 °F 68% 30.21 in 10.0 mi ESE 4.6 mph - N/A   Scattered Clouds
1:00 PM 69.8 °F 60.8 °F 73% 30.20 in 10.0 mi SE 4.6 mph - N/A   Mostly Cloudy
1:20 PM 71.6 °F 59.0 °F 64% 30.20 in 10.0 mi SSE 6.9 mph - N/A   Mostly Cloudy
1:40 PM 71.6 °F 59.0 °F 64% 30.19 in 10.0 mi SE 6.9 mph - N/A   Clear
2:00 PM 71.6 °F 57.2 °F 60% 30.19 in 10.0 mi East 9.2 mph - N/A   Scattered Clouds
2:20 PM 73.4 °F 57.2 °F 57% 30.18 in 10.0 mi SSE 4.6 mph - N/A   Scattered Clouds
2:40 PM 71.6 °F 57.2 °F 60% 30.18 in 10.0 mi ESE 9.2 mph - N/A   Mostly Cloudy
3:00 PM 73.4 °F 55.4 °F 53% 30.17 in 10.0 mi ESE 12.7 mph 16.1 mph N/A   Scattered Clouds
3:20 PM 73.4 °F 53.6 °F 50% 30.16 in 10.0 mi SE 8.1 mph - N/A   Scattered Clouds
4:00 PM 73.4 °F 55.4 °F 53% 30.15 in 10.0 mi ESE 11.5 mph 16.1 mph N/A   Clear
4:20 PM 73.4 °F 57.2 °F 57% 30.15 in 10.0 mi ESE 10.4 mph 16.1 mph N/A   Scattered Clouds
4:40 PM 73.4 °F 55.4 °F 53% 30.14 in 10.0 mi SE 11.5 mph 16.1 mph N/A   Mostly Cloudy
5:00 PM 71.6 °F 57.2 °F 60% 30.14 in 10.0 mi SE 16.1 mph 19.6 mph N/A   Scattered Clouds
5:20 PM 69.8 °F 59.0 °F 68% 30.14 in 10.0 mi ESE 10.4 mph - N/A   Mostly Cloudy
5:40 PM 69.8 °F 59.0 °F 68% 30.14 in 10.0 mi ESE 11.5 mph 16.1 mph N/A   Mostly Cloudy
6:20 PM 68.0 °F 60.8 °F 78% 30.14 in 10.0 mi SE 6.9 mph - N/A   Overcast
6:40 PM 68.0 °F 60.8 °F 78% 30.13 in 10.0 mi ESE 11.5 mph 17.3 mph N/A   Mostly Cloudy
7:25 PM 64.4 °F 62.6 °F 94% 30.14 in 10.0 mi SSE 8.1 mph - N/A   Mostly Cloudy
7:45 PM 64.4 °F 62.6 °F 94% 30.15 in 10.0 mi SSE 8.1 mph - N/A   Mostly Cloudy
8:05 PM 64.4 °F 64.4 °F 100% 30.15 in 10.0 mi SSE 5.8 mph - N/A   Overcast
8:25 PM 64.4 °F 64.4 °F 100% 30.16 in 10.0 mi South 5.8 mph - N/A   Overcast
8:45 PM 62.6 °F 62.6 °F 100% 30.16 in 10.0 mi South 3.5 mph - N/A   Overcast
9:05 PM 62.6 °F 62.6 °F 100% 30.16 in 10.0 mi SSE 4.6 mph - N/A   Overcast
9:45 PM 62.6 °F - N/A% 30.16 in 10.0 mi SE 4.6 mph - N/A   Overcast
10:05 PM 62.6 °F - N/A% 30.16 in 10.0 mi Calm Calm - N/A   Overcast
10:25 PM 62.6 °F - N/A% 30.16 in 10.0 mi SE 3.5 mph - N/A   Overcast
11:05 PM 62.6 °F - N/A% 30.17 in 10.0 mi Calm Calm - N/A   Overcast
11:25 PM 62.6 °F - N/A% 30.17 in 10.0 mi SE 4.6 mph - N/A   Overcast
11:45 PM 60.8 °F - N/A% 30.15 in 7.0 mi SE 5.8 mph - N/A   Overcast